Location: Cicognara
(44.9500°N, 10.4667°E)
Time: 06:58:51
(UTC+00:00)

Lacrosse 4 Rocket - Pass Details

Date: 23 October 2021
Orbit: 537 x 619 km, 68.0° (Epoch: 07 December)

Event Time Altitude Azimuth Distance (km) Brightness Sun altitude
Rises 17:23:22 0° 334° (NNW) 2,807 5.2 -11.9°
Reaches altitude 10° 17:25:41 10° 341° (NNW) 1,918 4.3 -12.3°
Maximum altitude 17:29:48 43° 54° (NE) 840 1.9 -13.0°
Enters shadow 17:33:04 16° 122° (ESE) 1,606 3.2 -13.6°
